Location: Guferjoch
(46.7462°N, 8.4506°E)
Time: 23:35:20
(UTC+00:00)

Cosmos 1238 Rocket - Pass Details

Date: 14 July 2020
Orbit: 374 x 1030 km, 82.9° (Epoch: 14 August)

Event Time Altitude Azimuth Distance (km) Brightness Sun altitude
Exits shadow 00:50:00 31° 236° (SW) 1,327 4.3 -19.4°
Maximum altitude 00:51:51 42° 282° (WNW) 1,034 4.1 -19.3°
Drops below altitude 10° 00:56:13 10° 354° (N) 2,044 6.7 -19.0°
Sets 00:58:21 0° 2° (N) 2,852 7.8 -18.9°
